Tracking 23757 objects as of 26-Oct-2021
HD Live streaming from Space Station
objects crossing your sky now

COSMOS 1375 DEB

Track COSMOS 1375 DEB now!
10-day predictions


NORAD ID: 16379
Int'l Code: 1982-055T
Perigee: 960.0 km
Apogee: 996.6 km
Inclination: 65.8 °
Period: 104.5 minutes
Semi major axis: 7349 km
RCS: 0.1296 m2 (medium)
Launch date: June 6, 1982
Source: Commonwealth of Independent States (former USSR) (CIS)
Launch site: PLESETSK MISSILE AND SPACE COMPLEX (PKMTR)

Note: This is SATELLITE DEBRIS
aabbcc
Your satellite tracking list
Your tracking list is empty




NASA's NSSDC Master Catalog

Two Line Element Set (TLE):
1 16379U 82055T   21299.24715112 -.00000080  00000-0  17336-5 0  9996
2 16379  65.8348 115.5322 0024927 233.5412 300.2080 13.77959135391551
Source of the keplerian elements: AFSPC